Weather History for KMTJ - February, 2012

Change the Weather History Date:

Sunday, February 5, 2012

  Actual Average Record
Temperature  
Mean Temperature 33 °F 30 °F  
Max Temperature 43 °F 41 °F 62 °F (2015)
Min Temperature 22 °F 18 °F 3 °F (2002)
Degree Days  
Heating Degree Days 32 35  
Month to date heating degree days 156 178  
Since 1 July heating degree days 3863 3983  
Cooling Degree Days 0 0  
Month to date cooling degree days 0  
Year to date cooling degree days 0  
Moisture  
Dew Point 17 °F    
Average Humidity 52    
Maximum Humidity 74    
Minimum Humidity 30    
Precipitation  
Precipitation 0.00 in 0.02 in 0.09 in (1999)
Month to date precipitation T 0.07  
Year to date precipitation 0.37 0.72  
Sea Level Pressure  
Sea Level Pressure 30.25 in    
Wind  
Wind Speed 5 mph (SSE)    
Max Wind Speed 12 mph    
Max Gust Speed 14 mph    
Visibility 10 miles    
Events      
T = Trace of Precipitation, MM = Missing Value Source: NWS Daily Summary

Daily Weather History Graph

Daily Weather History Graph

Search for Another Location

Airport or City:

Trip Planner

Search our weather history database for the weather conditions in past years. The results will help you decide how hot, cold, wet, or windy it might be!

Date:

Astronomy

Feb. 05, 2012 Rise Set
Actual Time 7:13 AM MST 5:37 PM MST
Civil Twilight 6:46 AM MST 6:05 PM MST
Nautical Twilight 6:14 AM MST 6:37 PM MST
Astronomical Twilight 5:43 AM MST 7:08 PM MST
Moon 3:40 PM MST 5:25 AM MST
Length of Visible Light 11h 19m
Length of Day
10h 24m
Waxing Gibbous, 95% of the Moon is Illuminated
Feb 5
Waxing Gibbous
Feb 7
Full
Feb 14
Last Quarter
Feb 21
New
Feb 29
First Quarter

Hourly Weather History & Observations

Time (MST) Temp. Windchill Dew Point Humidity Pressure Visibility Wind Dir Wind Speed Gust Speed Precip Events Conditions
12:53 AM 27.0 °F 18.0 °F 17.1 °F 66% 30.30 in 10.0 mi SE 9.2 mph - N/A   Mostly Cloudy
1:53 AM 25.0 °F 18.1 °F 18.0 °F 75% 30.30 in 10.0 mi SSE 5.8 mph - N/A   Clear
2:53 AM 24.1 °F 16.0 °F 17.1 °F 75% 30.30 in 10.0 mi SSE 6.9 mph - N/A   Clear
3:53 AM 24.1 °F 13.7 °F 16.0 °F 71% 30.30 in 10.0 mi SE 10.4 mph - N/A   Mostly Cloudy
4:53 AM 23.0 °F 12.4 °F 15.1 °F 72% 30.31 in 10.0 mi SSE 10.4 mph - N/A   Clear
5:53 AM 23.0 °F 13.1 °F 14.0 °F 68% 30.32 in 10.0 mi SE 9.2 mph - N/A   Mostly Cloudy
6:53 AM 21.9 °F 12.5 °F 14.0 °F 72% 30.35 in 10.0 mi SSE 8.1 mph - N/A   Partly Cloudy
7:53 AM 23.0 °F 14.7 °F 14.0 °F 68% 30.36 in 10.0 mi SE 6.9 mph - N/A   Clear
8:53 AM 24.1 °F 18.2 °F 15.1 °F 69% 30.36 in 10.0 mi South 4.6 mph - N/A   Partly Cloudy
9:53 AM 27.0 °F - 18.0 °F 69% 30.35 in 10.0 mi Calm Calm - N/A   Clear
10:53 AM 32.0 °F - 16.0 °F 52% 30.31 in 10.0 mi Calm Calm - N/A   Clear
11:53 AM 35.1 °F - 15.1 °F 44% 30.26 in 10.0 mi Calm Calm - N/A   Clear
12:53 PM 39.0 °F - 14.0 °F 36% 30.20 in 10.0 mi Calm Calm - N/A   Clear
1:53 PM 39.9 °F - 14.0 °F 35% 30.17 in 10.0 mi Calm Calm - N/A   Clear
2:53 PM 41.0 °F - 12.9 °F 32% 30.15 in 10.0 mi Calm Calm - N/A   Partly Cloudy
3:53 PM 42.1 °F 39.2 °F 15.1 °F 34% 30.14 in 10.0 mi NW 4.6 mph - N/A   Clear
4:53 PM 39.9 °F 35.8 °F 17.1 °F 40% 30.15 in 10.0 mi WNW 5.8 mph - N/A   Overcast
5:53 PM 37.9 °F 32.7 °F 21.9 °F 53% 30.16 in 10.0 mi WNW 6.9 mph - N/A   Overcast
6:53 PM 32.0 °F 27.5 °F 21.0 °F 64% 30.19 in 10.0 mi SSE 4.6 mph - N/A   Overcast
7:53 PM 30.9 °F 24.3 °F 21.0 °F 67% 30.20 in 10.0 mi ESE 6.9 mph - N/A   Overcast
8:53 PM 32.0 °F 25.6 °F 21.0 °F 64% 30.21 in 10.0 mi SE 6.9 mph - N/A   Overcast
9:53 PM 30.9 °F 24.3 °F 19.9 °F 64% 30.18 in 10.0 mi East 6.9 mph - N/A   Mostly Cloudy
10:53 PM 28.9 °F 21.1 °F 19.9 °F 69% 30.16 in 10.0 mi SSE 8.1 mph - N/A   Clear
11:53 PM 28.9 °F 21.9 °F 17.1 °F 61% 30.14 in 10.0 mi SE 6.9 mph - N/A   Partly Cloudy